| time (UTC) | temp F | wind direction | speed knots | gust knots | rain 1hr in | rain 24hr in | rain mn in | humidity % | barometer mb |
| 20260504185050 | 69 | 33 | 2.6 | 9.6 | 0.00 | 0.00 | 0.00 | 39 | 1006.6 |
| 20260504184549 | 69 | 232 | 1.7 | 9.6 | 0.00 | 0.00 | 0.00 | 41 | 1006.8 |
| 20260504184048 | 68 | 118 | 2.6 | 9.6 | 0.00 | 0.00 | 0.00 | 41 | 1006.8 |
| 20260504183548 | 68 | 301 | 1.7 | 9.6 | 0.00 | 0.00 | 0.00 | 39 | 1006.8 |
| 20260504183046 | 67 | 300 | 2.6 | 7.8 | 0.00 | 0.00 | 0.00 | 39 | 1006.9 |
| 20260504182546 | 67 | 267 | 1.7 | 7.8 | 0.00 | 0.00 | 0.00 | 39 | 1006.9 |
| 20260504182046 | 67 | 336 | 2.6 | 7.8 | 0.00 | 0.00 | 0.00 | 42 | 1006.9 |
| 20260504181546 | 67 | 276 | 1.7 | 5.2 | 0.00 | 0.00 | 0.00 | 40 | 1006.9 |
| 20260504181046 | 67 | 93 | 2.6 | 7.0 | 0.00 | 0.00 | 0.00 | 39 | 1007.1 |
| 20260504180545 | 67 | 209 | 0.9 | 8.7 | 0.00 | 0.00 | 0.00 | 38 | 1006.9 |
| 20260504180045 | 68 | 227 | 4.3 | 8.7 | 0.00 | 0.00 | 0.00 | 39 | 1007.0 |
| 20260504175545 | 68 | 237 | 2.6 | 11.3 | 0.00 | 0.00 | 0.00 | 39 | 1007.0 |
| 20260504175045 | 69 | 152 | 2.6 | 11.3 | 0.00 | 0.00 | 0.00 | 39 | 1007.0 |
| 20260504174546 | 69 | 347 | 1.7 | 7.0 | 0.00 | 0.00 | 0.00 | 37 | 1007.0 |
| 20260504174044 | 69 | 164 | 1.7 | 7.0 | 0.00 | 0.00 | 0.00 | 39 | 1007.1 |
| 20260504173542 | 69 | 144 | 2.6 | 7.0 | 0.00 | 0.00 | 0.00 | 39 | 1007.1 |
| 20260504173044 | 68 | 50 | 2.6 | 7.0 | 0.00 | 0.00 | 0.00 | 40 | 1007.2 |
| 20260504172540 | 67 | 228 | 1.7 | 7.8 | 0.00 | 0.00 | 0.00 | 41 | 1007.1 |
| 20260504172039 | 67 | 333 | 1.7 | 9.6 | 0.00 | 0.00 | 0.00 | 39 | 1007.1 |
| 20260504171539 | 66 | 132 | 4.3 | 12.2 | 0.00 | 0.00 | 0.00 | 39 | 1007.1 |
| 20260504171038 | 66 | 102 | 1.7 | 12.2 | 0.00 | 0.00 | 0.00 | 39 | 1007.1 |
| 20260504170538 | 67 | 289 | 2.6 | 7.0 | 0.00 | 0.00 | 0.00 | 40 | 1007.1 |
| 20260504151022 | 64 | 314 | 2.6 | 10.4 | 0.00 | 0.00 | 0.00 | 44 | 1008.3 |
| 20260504150520 | 63 | 85 | 2.6 | 7.8 | 0.00 | 0.00 | 0.00 | 45 | 1008.3 |
| 20260504141013 | 61 | 33 | 1.7 | 6.1 | 0.00 | 0.00 | 0.00 | 47 | 1008.9 |
| 20260504140512 | 61 | 244 | 1.7 | 3.5 | 0.00 | 0.00 | 0.00 | 47 | 1008.8 |
| 20260504130559 | 57 | 299 | 2.6 | 7.8 | 0.00 | 0.00 | 0.00 | 53 | 1009.7 |
| 20260504110525 | 43 | 272 | 0.0 | 1.7 | 0.00 | 0.00 | 0.00 | 77 | 1010.1 |
| 20260504100517 | 40 | 135 | 0.0 | 0.9 | 0.00 | 0.00 | 0.00 | 81 | 1009.8 |
| 20260504081512 | 41 | 254 | 0.0 | 2.6 | 0.00 | 0.00 | 0.00 | 81 | 1010.1 |
| 20260504081012 | 41 | 254 | 0.0 | 2.6 | 0.00 | 0.00 | 0.00 | 82 | 1009.9 |
| 20260504080512 | 41 | 65 | 0.0 | 0.9 | 0.00 | 0.00 | 0.00 | 82 | 1010.0 |
| 20260504060105 | 39 | 253 | 0.0 | 0.0 | 0.00 | 0.01 | 0.00 | 81 | 1010.0 |
| 20260504050556 | 38 | 218 | 0.0 | 0.9 | 0.00 | 0.01 | 0.00 | 78 | 1010.1 |
| 20260504045553 | 38 | 218 | 0.0 | 2.6 | 0.00 | 0.01 | 0.00 | 78 | 1010.1 |
| 20260504045052 | 37 | 218 | 0.0 | 2.6 | 0.00 | 0.01 | 0.00 | 78 | 1010.2 |
| 20260504044553 | 37 | 218 | 0.0 | 1.7 | 0.00 | 0.01 | 0.00 | 79 | 1010.2 |
| 20260504044051 | 37 | 218 | 0.0 | 1.7 | 0.00 | 0.01 | 0.00 | 79 | 1010.1 |
| 20260504043551 | 36 | 218 | 0.0 | 1.7 | 0.00 | 0.01 | 0.00 | 81 | 1010.2 |
| 20260504043055 | 36 | 213 | 0.0 | 0.0 | 0.00 | 0.01 | 0.00 | 79 | 1010.1 |
| 20260504042548 | 36 | 213 | 0.0 | 0.0 | 0.00 | 0.01 | 0.00 | 80 | 1010.3 |
| 20260504042047 | 36 | 213 | 0.0 | 0.0 | 0.00 | 0.01 | 0.00 | 81 | 1010.2 |
| 20260504041547 | 35 | 213 | 0.0 | 0.0 | 0.00 | 0.01 | 0.00 | 80 | 1010.2 |
| 20260504041046 | 35 | 213 | 0.0 | 0.0 | 0.00 | 0.01 | 0.00 | 81 | 1010.0 |
| 20260504040546 | 35 | 213 | 0.0 | 0.0 | 0.00 | 0.01 | 0.00 | 81 | 1010.0 |
| 20260504040047 | 35 | 213 | 0.0 | 0.0 | 0.00 | 0.01 | 0.00 | 79 | 1010.0 |
| 20260504035545 | 35 | 213 | 0.0 | 0.0 | 0.00 | 0.01 | 0.01 | 79 | 1009.9 |
| 20260504035045 | 35 | 213 | 0.0 | 0.0 | 0.00 | 0.01 | 0.01 | 78 | 1010.0 |
| 20260504034553 | 35 | 213 | 0.0 | 0.0 | 0.00 | 0.01 | 0.01 | 79 | 1009.9 |
| 20260504034048 | 35 | 213 | 0.0 | 0.0 | 0.00 | 0.01 | 0.01 | 79 | 1010.1 |
| 20260504033544 | 34 | 213 | 0.0 | 0.0 | 0.00 | 0.01 | 0.01 | 78 | 1010.0 |
| 20260504033044 | 34 | 213 | 0.0 | 0.0 | 0.00 | 0.01 | 0.01 | 79 | 1010.0 |
| 20260504032543 | 34 | 213 | 0.0 | 0.0 | 0.00 | 0.01 | 0.01 | 78 | 1009.9 |
| 20260504032044 | 35 | 213 | 0.0 | 0.0 | 0.00 | 0.01 | 0.01 | 79 | 1010.0 |
| 20260504031544 | 35 | 213 | 0.0 | 0.0 | 0.00 | 0.01 | 0.01 | 79 | 1009.9 |
| 20260504031042 | 35 | 213 | 0.0 | 0.0 | 0.00 | 0.01 | 0.01 | 78 | 1009.8 |
| 20260504030542 | 35 | 213 | 0.0 | 0.0 | 0.00 | 0.01 | 0.01 | 77 | 1009.8 |
| 20260504030042 | 35 | 213 | 0.0 | 0.0 | 0.00 | 0.01 | 0.01 | 77 | 1009.9 |
| 20260504025542 | 35 | 213 | 0.0 | 0.0 | 0.00 | 0.01 | 0.01 | 77 | 1009.9 |
| 20260504025042 | 36 | 213 | 0.0 | 0.0 | 0.00 | 0.01 | 0.01 | 77 | 1009.9 |
| 20260504024547 | 36 | 213 | 0.0 | 0.0 | 0.00 | 0.01 | 0.01 | 77 | 1009.8 |
| 20260504024041 | 36 | 213 | 0.0 | 0.0 | 0.00 | 0.01 | 0.01 | 76 | 1009.9 |
| 20260504023642 | 36 | 213 | 0.0 | 0.0 | 0.00 | 0.01 | 0.01 | 76 | 1009.9 |
| 20260504023041 | 36 | 213 | 0.0 | 0.0 | 0.00 | 0.01 | 0.01 | 75 | 1009.8 |
| 20260504022541 | 35 | 213 | 0.0 | 0.0 | 0.00 | 0.01 | 0.01 | 76 | 1009.8 |
| 20260504022041 | 36 | 213 | 0.0 | 0.0 | 0.00 | 0.01 | 0.01 | 77 | 1009.9 |
| 20260504021541 | 36 | 213 | 0.0 | 0.0 | 0.00 | 0.01 | 0.01 | 77 | 1009.9 |
| 20260504021040 | 36 | 213 | 0.0 | 0.0 | 0.00 | 0.01 | 0.01 | 78 | 1009.9 |
| 20260504020540 | 36 | 213 | 0.0 | 0.0 | 0.00 | 0.01 | 0.01 | 78 | 1009.9 |
| 20260504020042 | 36 | 213 | 0.0 | 0.0 | 0.00 | 0.01 | 0.01 | 80 | 1009.8 |
| 20260504015540 | 36 | 213 | 0.0 | 0.0 | 0.00 | 0.01 | 0.01 | 81 | 1009.8 |
| 20260504015040 | 36 | 213 | 0.0 | 0.0 | 0.00 | 0.01 | 0.01 | 81 | 1009.7 |
| 20260504014541 | 36 | 213 | 0.0 | 0.0 | 0.00 | 0.01 | 0.01 | 80 | 1009.7 |
| 20260504014039 | 36 | 213 | 0.0 | 0.0 | 0.00 | 0.01 | 0.01 | 81 | 1009.6 |
| 20260504013539 | 36 | 213 | 0.0 | 0.0 | 0.00 | 0.01 | 0.01 | 82 | 1009.6 |
| 20260504013054 | 37 | 213 | 0.0 | 0.0 | 0.00 | 0.01 | 0.01 | 81 | 1009.6 |
| 20260504012539 | 37 | 213 | 0.0 | 0.0 | 0.00 | 0.01 | 0.01 | 81 | 1009.6 |
| 20260504012039 | 37 | 213 | 0.0 | 0.0 | 0.00 | 0.01 | 0.01 | 81 | 1009.5 |
| 20260504011538 | 37 | 213 | 0.0 | 0.0 | 0.00 | 0.01 | 0.01 | 80 | 1009.2 |
| 20260504011039 | 38 | 213 | 0.0 | 0.0 | 0.00 | 0.01 | 0.01 | 78 | 1009.3 |
| 20260504010538 | 38 | 213 | 0.0 | 0.0 | 0.00 | 0.01 | 0.01 | 78 | 1009.2 |
| 20260504010041 | 38 | 213 | 0.0 | 0.0 | 0.00 | 0.01 | 0.01 | 78 | 1009.2 |
| 20260504005541 | 39 | 213 | 0.0 | 0.0 | 0.00 | 0.01 | 0.01 | 75 | 1009.1 |
| 20260504005038 | 39 | 213 | 0.0 | 0.0 | 0.00 | 0.01 | 0.01 | 75 | 1009.0 |
| 20260504004538 | 39 | 213 | 0.0 | 0.0 | 0.00 | 0.01 | 0.01 | 74 | 1009.0 |
| 20260504004038 | 40 | 213 | 0.0 | 0.0 | 0.00 | 0.01 | 0.01 | 74 | 1008.9 |
| 20260504003537 | 40 | 213 | 0.0 | 0.9 | 0.00 | 0.01 | 0.01 | 72 | 1008.9 |
| 20260504003037 | 40 | 213 | 0.0 | 1.7 | 0.00 | 0.01 | 0.01 | 70 | 1008.8 |
| 20260504002537 | 41 | 213 | 0.0 | 1.7 | 0.00 | 0.01 | 0.01 | 69 | 1008.8 |
| 20260504002037 | 41 | 213 | 0.0 | 1.7 | 0.00 | 0.01 | 0.01 | 67 | 1008.7 |
| 20260504001540 | 41 | 213 | 0.0 | 1.7 | 0.00 | 0.01 | 0.01 | 67 | 1008.7 |
| 20260504001039 | 42 | 213 | 0.0 | 1.7 | 0.00 | 0.01 | 0.01 | 66 | 1008.6 |
| 20260504000536 | 42 | 213 | 0.0 | 0.0 | 0.00 | 0.01 | 0.01 | 66 | 1008.5 |
| 20260504000037 | 43 | 213 | 0.0 | 1.7 | 0.00 | 0.01 | 0.01 | 66 | 1008.5 |
| 20260503235536 | 43 | 213 | 0.0 | 1.7 | 0.00 | 0.01 | 0.01 | 65 | 1008.4 |
| 20260503235038 | 43 | 328 | 0.0 | 2.6 | 0.00 | 0.01 | 0.01 | 64 | 1008.4 |
| 20260503234536 | 44 | 328 | 0.0 | 2.6 | 0.00 | 0.01 | 0.01 | 62 | 1008.3 |
| 20260503234036 | 44 | 104 | 0.0 | 1.7 | 0.00 | 0.01 | 0.01 | 62 | 1008.3 |
| 20260503233537 | 44 | 70 | 0.0 | 1.7 | 0.00 | 0.01 | 0.01 | 60 | 1008.3 |
| 20260503233036 | 45 | 70 | 0.0 | 1.7 | 0.00 | 0.01 | 0.01 | 61 | 1008.2 |
| 20260503232536 | 45 | 70 | 0.0 | 2.6 | 0.00 | 0.01 | 0.01 | 59 | 1008.1 |
| 20260503232035 | 45 | 70 | 0.0 | 5.2 | 0.00 | 0.01 | 0.01 | 58 | 1008.1 |
| 20260503231535 | 46 | 230 | 0.9 | 6.1 | 0.00 | 0.01 | 0.01 | 55 | 1008.1 |
| 20260503231035 | 46 | 278 | 0.0 | 6.1 | 0.00 | 0.01 | 0.01 | 60 | 1008.1 |
| 20260503230534 | 46 | 178 | 0.0 | 5.2 | 0.00 | 0.01 | 0.01 | 59 | 1008.0 |
| 20260503230041 | 46 | 274 | 1.7 | 5.2 | 0.00 | 0.01 | 0.01 | 55 | 1007.9 |
| 20260503225534 | 46 | 135 | 0.9 | 2.6 | 0.00 | 0.05 | 0.01 | 57 | 1007.9 |
| 20260503225034 | 46 | 205 | 0.9 | 3.5 | 0.00 | 0.05 | 0.01 | 57 | 1007.9 |
| 20260503224534 | 46 | 347 | 0.0 | 3.5 | 0.00 | 0.05 | 0.01 | 55 | 1007.9 |
| 20260503224035 | 47 | 349 | 0.9 | 3.5 | 0.00 | 0.05 | 0.01 | 57 | 1007.9 |
| 20260503223535 | 47 | 307 | 0.9 | 3.5 | 0.00 | 0.05 | 0.01 | 53 | 1007.9 |
| 20260503223034 | 47 | 70 | 0.9 | 3.5 | 0.00 | 0.05 | 0.01 | 56 | 1007.9 |
| 20260503222534 | 47 | 112 | 0.9 | 5.2 | 0.00 | 0.05 | 0.01 | 56 | 1007.8 |
| 20260503222034 | 47 | 33 | 0.9 | 5.2 | 0.00 | 0.05 | 0.01 | 56 | 1007.8 |
| 20260503221533 | 47 | 355 | 0.9 | 5.2 | 0.00 | 0.05 | 0.01 | 55 | 1007.8 |
| 20260503221037 | 47 | 351 | 1.7 | 5.2 | 0.00 | 0.05 | 0.01 | 53 | 1007.7 |
| 20260503220534 | 47 | 62 | 1.7 | 4.3 | 0.00 | 0.05 | 0.01 | 52 | 1007.8 |
| 20260503220032 | 47 | 146 | 0.9 | 3.5 | 0.00 | 0.05 | 0.01 | 54 | 1007.8 |
| 20260503215534 | 47 | 331 | 0.0 | 4.3 | 0.00 | 0.09 | 0.01 | 55 | 1007.8 |
| 20260503215032 | 47 | 122 | 0.9 | 4.3 | 0.00 | 0.09 | 0.01 | 53 | 1007.7 |
| 20260503214539 | 47 | 52 | 0.9 | 7.8 | 0.00 | 0.09 | 0.01 | 53 | 1007.7 |
| 20260503214032 | 48 | 308 | 2.6 | 7.8 | 0.00 | 0.09 | 0.01 | 51 | 1007.6 |
| 20260503213532 | 48 | 62 | 1.7 | 5.2 | 0.00 | 0.09 | 0.01 | 52 | 1007.6 |
| 20260503213032 | 48 | 69 | 1.7 | 7.0 | 0.00 | 0.09 | 0.01 | 53 | 1007.6 |
| 20260503212531 | 47 | 337 | 1.7 | 7.0 | 0.00 | 0.09 | 0.01 | 52 | 1007.5 |
| 20260503212030 | 48 | 301 | 1.7 | 7.8 | 0.00 | 0.09 | 0.01 | 53 | 1007.3 |
| 20260503211531 | 48 | 106 | 0.9 | 7.8 | 0.00 | 0.09 | 0.01 | 53 | 1007.2 |
| 20260503211030 | 48 | 283 | 1.7 | 7.8 | 0.00 | 0.09 | 0.01 | 52 | 1007.2 |
| 20260503210530 | 47 | 41 | 1.7 | 8.7 | 0.00 | 0.09 | 0.01 | 55 | 1007.2 |
| 20260503210030 | 48 | 320 | 0.9 | 8.7 | 0.00 | 0.09 | 0.01 | 52 | 1007.1 |
| 20260503205530 | 48 | 93 | 1.7 | 7.0 | 0.00 | 0.15 | 0.01 | 52 | 1007.1 |
| 20260503205029 | 48 | 178 | 1.7 | 7.8 | 0.00 | 0.15 | 0.01 | 54 | 1007.1 |
| 20260503204530 | 48 | 89 | 1.7 | 8.7 | 0.00 | 0.15 | 0.01 | 51 | 1007.1 |
| 20260503204029 | 48 | 75 | 2.6 | 8.7 | 0.00 | 0.15 | 0.01 | 51 | 1006.9 |
| 20260503203533 | 48 | 322 | 0.9 | 7.8 | 0.00 | 0.15 | 0.01 | 52 | 1007.0 |
| 20260503203035 | 48 | 162 | 2.6 | 7.8 | 0.00 | 0.15 | 0.01 | 53 | 1006.9 |
| 20260503202529 | 48 | 106 | 1.7 | 5.2 | 0.00 | 0.15 | 0.01 | 52 | 1007.0 |
| 20260503202029 | 47 | 7 | 1.7 | 5.2 | 0.00 | 0.15 | 0.01 | 52 | 1007.0 |
| 20260503201529 | 48 | 317 | 1.7 | 5.2 | 0.00 | 0.15 | 0.01 | 52 | 1007.0 |
| 20260503201027 | 48 | 144 | 1.7 | 10.4 | 0.00 | 0.15 | 0.01 | 53 | 1007.0 |
| 20260503200527 | 48 | 287 | 2.6 | 10.4 | 0.00 | 0.15 | 0.01 | 53 | 1006.9 |
| 20260503200029 | 48 | 4 | 1.7 | 8.7 | 0.00 | 0.15 | 0.01 | 53 | 1006.9 |
| 20260503195527 | 48 | 296 | 2.6 | 8.7 | 0.00 | 0.15 | 0.01 | 52 | 1006.9 |
| 20260503195027 | 48 | 215 | 0.9 | 5.2 | 0.00 | 0.15 | 0.01 | 52 | 1007.0 |
| 20260503194527 | 48 | 93 | 1.7 | 6.1 | 0.00 | 0.15 | 0.01 | 54 | 1006.9 |
| 20260503194027 | 48 | 163 | 1.7 | 6.1 | 0.00 | 0.15 | 0.01 | 54 | 1006.9 |
| 20260503193527 | 48 | 268 | 1.7 | 10.4 | 0.00 | 0.15 | 0.01 | 53 | 1006.8 |
| 20260503193041 | 49 | 212 | 2.6 | 10.4 | 0.00 | 0.15 | 0.01 | 52 | 1006.6 |
| 20260503192525 | 49 | 153 | 1.7 | 7.0 | 0.00 | 0.15 | 0.01 | 53 | 1006.9 |
| 20260503192030 | 48 | 37 | 0.0 | 7.0 | 0.00 | 0.15 | 0.01 | 50 | 1006.7 |
| 20260503191557 | 48 | 159 | 1.7 | 9.6 | 0.00 | 0.15 | 0.01 | 49 | 1006.7 |
| 20260503191029 | 49 | 41 | 2.6 | 9.6 | 0.00 | 0.15 | 0.01 | 49 | 1006.6 |
| 20260503190530 | 49 | 280 | 1.7 | 7.0 | 0.00 | 0.15 | 0.01 | 52 | 1006.8 |
| 20260503190035 | 48 | 23 | 0.9 | 7.0 | 0.00 | 0.15 | 0.01 | 51 | 1006.8 |
| 20260503185530 | 48 | 8 | 2.6 | 8.7 | 0.00 | 0.15 | 0.01 | 51 | 1006.8 |